Location: Martin
(32.0982°N, 93.2193°W)
Time: 06:32:29
(UTC+00:00)

Envisat - Visible Passes

Search period start: 12 July 2025 00:00
Search period end: 22 July 2025 00:00
Orbit: 761 x 763 km, 98.3° (Epoch: 11 July)

Date Brightness Start Highest point End Pass type
(mag) Time Alt. Az. Time Alt. Az. Time Alt. Az.
12 Jul 5.5 07:39:09 10° ENE 07:40:31 11° E 07:41:02 11° E visible
12 Jul 3.0 09:14:46 10° N 09:19:46 63° WNW 09:21:11 44° SW visible
13 Jul 3.5 08:37:10 10° NNE 08:42:06 51° E 08:42:59 46° SE visible
13 Jul 4.8 10:17:48 10° NNW 10:20:33 15° WNW 10:23:07 11° W visible
14 Jul 4.9 08:00:31 10° NE 08:04:16 21° E 08:04:48 20° ESE visible
14 Jul 3.8 09:38:38 10° N 09:43:12 35° WNW 09:44:55 27° WSW visible
15 Jul 2.9 09:00:35 10° NNE 09:05:40 88° WNW 09:06:44 57° SSW visible
16 Jul 4.0 08:23:17 10° NNE 08:27:57 36° E 08:28:33 35° ESE visible
16 Jul 4.5 10:02:54 10° NNW 10:06:34 20° WNW 10:08:40 16° W visible
17 Jul 5.3 07:47:18 10° ENE 07:50:02 14° E 07:50:21 14° E visible
17 Jul 3.3 09:24:17 10° N 09:29:09 49° WNW 09:30:29 39° WSW visible
18 Jul 3.1 08:46:30 10° NNE 08:51:32 66° E 08:52:17 58° SSE visible
18 Jul 5.0 10:28:09 10° NW 10:29:51 12° WNW 10:31:32 10° W visible
19 Jul 4.6 08:09:33 10° NE 08:13:45 26° E 08:14:05 26° ESE visible
19 Jul 4.1 09:48:18 10° NNW 09:52:34 28° WNW 09:54:13 23° WSW visible
20 Jul 2.9 09:10:02 10° N 09:15:04 70° WNW 09:16:01 55° SW visible
21 Jul 3.6 08:32:31 10° NNE 08:37:24 46° E 08:37:49 45° ESE visible
21 Jul 4.7 10:12:49 10° NNW 10:15:53 16° WNW 10:17:57 13° W visible
